Glacier Highway/Egan Drive @ MP 3 current weather conditions

sailwx.info

Wind from 020

Air temperature 0.2° C
Dewpoint 1.7° C

Last reported at 2020-Jan-22 14:50 UTC.
Time now 2020-Jan-22 15:57 UTC

Location: N 58°19' W 134°27'.
View on Google Maps.

See reports from other nearby stations

  
Tides and Currents Weather Stations Pressure Air Temp Water Temp Dewpoint Dewpoint Depression Visibility Wind Speed Wind Dir Waves Ship Positions
date/time (UTC)wind fromknots sea level pressurealtimeterstation pressurevisibilityair tempwater tempwave heightnotes
2020-Jan-22 14:50 020 0.2
2020-Jan-22 14:40 050 0.4
2020-Jan-22 14:30 085 0.5
2020-Jan-22 14:20 030 0.4
2020-Jan-22 14:10 0.4
2020-Jan-22 14:00
2020-Jan-22 13:50 045 0.4
2020-Jan-22 13:40 305 0.4
2020-Jan-22 13:30
2020-Jan-22 13:20 170 0.5
2020-Jan-22 13:10 140 0.5
2020-Jan-22 13:00 0.5
2020-Jan-22 12:50 020 0.4
2020-Jan-22 12:40 345 0.4
2020-Jan-22 12:30 350 0.6
2020-Jan-22 12:10 315 0.4
2020-Jan-22 12:00 005 0.4
2020-Jan-22 11:50 010 0.5
2020-Jan-22 11:40 320 0.5
2020-Jan-22 11:30
2020-Jan-22 11:20 020 0.4
2020-Jan-22 11:10 115 0.4
2020-Jan-22 11:00 140 0.4
2020-Jan-22 10:50 355 0.4
2020-Jan-22 10:40 355 0.4
2020-Jan-22 10:30
2020-Jan-22 10:20 230 0.4
2020-Jan-22 10:10
2020-Jan-22 10:00 040 0.4
2020-Jan-22 09:50 340 0.4
2020-Jan-22 09:40 025 0.4
2020-Jan-22 09:30 070 0.5
2020-Jan-22 09:20 300 0.4
2020-Jan-22 09:10 0.6
2020-Jan-22 08:50 125 0.6
2020-Jan-22 08:40 055 0.5
2020-Jan-22 08:30 195 0 gusting 2 0.4
2020-Jan-22 08:20
2020-Jan-22 08:10 0.5
2020-Jan-22 08:00 050 0.5
2020-Jan-22 07:50 075 0.4
2020-Jan-22 07:40 065 0.4
2020-Jan-22 07:30 025 2 gusting 4 0.4
2020-Jan-22 07:20 105 3 gusting 6 0.4
2020-Jan-22 07:10 110 3 gusting 6 0.4
2020-Jan-22 07:00 115 5 gusting 7 0.4
2020-Jan-22 06:50
2020-Jan-22 06:40 110 3 gusting 5 0.4
2020-Jan-22 06:30
2020-Jan-22 06:20 040 0.5
2020-Jan-22 06:10 100 2 gusting 5 0.5
2020-Jan-22 06:00 065 2 gusting 8 0.5
2020-Jan-22 05:50 100 4 gusting 9 0.5
2020-Jan-22 05:40 115 3 gusting 7 0.5
2020-Jan-22 05:30 105 5 gusting 8 0.5
2020-Jan-22 05:20 090 3 gusting 7 0.6
2020-Jan-22 05:10 120 3 gusting 8 0.6
2020-Jan-22 05:00 125 0.4
2020-Jan-22 04:50 120 0.5
2020-Jan-22 04:40 100 0.4
2020-Jan-22 04:30 100 2 gusting 4 0.4
2020-Jan-22 04:20 040 0.4
2020-Jan-22 04:10
2020-Jan-22 04:00 050 0 gusting 4 0.4
2020-Jan-22 03:50 015 0.4
2020-Jan-22 03:40 080 0.5
2020-Jan-22 03:30 090 0.5
2020-Jan-22 03:20 115 2 gusting 3 0.4
2020-Jan-22 03:10 070 0.5
2020-Jan-22 03:00 110 1 gusting 4 0.5
2020-Jan-22 02:50 120 2 gusting 4 0.6
2020-Jan-22 02:40 035 0.8
2020-Jan-22 02:30 055 0.7
2020-Jan-22 02:20 355 0.6
2020-Jan-22 02:10 025 0.9
2020-Jan-22 02:00 020 0.7
2020-Jan-22 01:50 080 0.7
2020-Jan-22 01:40 080 0.7
2020-Jan-22 01:30 115 0.7
2020-Jan-22 01:10 090 0.6
2020-Jan-22 01:00 090 0.7
2020-Jan-22 00:50 050 0.6
2020-Jan-22 00:30 065 0.5
2020-Jan-22 00:20 070 0.6
2020-Jan-22 00:10 210 0.6
2020-Jan-22 00:00 280 0.6
2020-Jan-21 23:50 285 4 gusting 5 0.6
2020-Jan-21 23:40 275 3 gusting 4 0.7
2020-Jan-21 23:30 295 3 gusting 4 0.7
2020-Jan-21 23:20 270 3 gusting 5 0.9
2020-Jan-21 23:10 265 4 gusting 5 1.0
2020-Jan-21 23:00 340 1.1
2020-Jan-21 22:50 325 1.0
2020-Jan-21 22:40 290 1.1
2020-Jan-21 22:30 260 0 gusting 3 1.1
2020-Jan-21 22:20
2020-Jan-21 22:10 280 1 gusting 4 1.1
2020-Jan-21 22:00 270 0 gusting 5 1.0
2020-Jan-21 21:50 280 5 gusting 6 1.0
2020-Jan-21 21:40 295 2 gusting 5 0.9
2020-Jan-21 21:30 285 3 gusting 4 0.9
2020-Jan-21 21:20 290 3 gusting 4 1.0
2020-Jan-21 21:10 275 2 gusting 4 1.1
2020-Jan-21 21:00 275 1 gusting 2 1.2
2020-Jan-21 20:50 315 0 gusting 3 1.1
2020-Jan-21 20:40 290 3 gusting 8 1.2
2020-Jan-21 20:30 305 1 gusting 4 0.8
2020-Jan-21 20:20 315 1 gusting 4 0.6
2020-Jan-21 20:10 295 2 gusting 4 0.5
2020-Jan-21 20:00 295 2 gusting 3 0.6
2020-Jan-21 19:50 280 1 gusting 2 0.6
2020-Jan-21 19:40 290 0.6
2020-Jan-21 19:30 060 0.6
2020-Jan-21 19:20 300 0.4
2020-Jan-21 19:10 015 0.5
2020-Jan-21 19:00 340 0.4
2020-Jan-21 18:50 205 0.4
2020-Jan-21 18:40 325 0.5
2020-Jan-21 18:30 305 0.3
2020-Jan-21 18:20 0.3
2020-Jan-21 18:10 060 0.3
2020-Jan-21 18:00 060 0.2
2020-Jan-21 17:50 070 0.1
2020-Jan-21 17:40 090 0.1
2020-Jan-21 17:30 0.1
2020-Jan-21 17:20
2020-Jan-21 17:10 055 0.1
2020-Jan-21 17:00 065 -0.0
2020-Jan-21 16:50 090 -0.2
2020-Jan-21 16:40 020 -0.3
2020-Jan-21 16:30 305 1 gusting 3 -0.3
2020-Jan-21 16:20 295 1 gusting 5 -0.3
2020-Jan-21 16:10 285 4 gusting 4 -0.3
2020-Jan-21 16:00
2020-Jan-21 15:50 285 3 gusting 7 0.1
2020-Jan-21 15:40 295 3 gusting 5 -0.1
2020-Jan-21 15:30 285 3 gusting 4 -0.2
2020-Jan-21 15:20 285 2 gusting 4 -0.0
2020-Jan-21 15:10 290 2 gusting 4 -0.1
2020-Jan-21 15:00 290 0 gusting 4 -0.2
2020-Jan-21 14:50 -0.1
2020-Jan-21 14:40 295 2 gusting 4 -0.1
2020-Jan-21 14:30
2020-Jan-21 14:20 285 4 gusting 5 -0.0
2020-Jan-21 14:00 295 2 gusting 4 0.2
2020-Jan-21 13:50 280 0.3
2020-Jan-21 13:40 290 3 gusting 5 0.3
2020-Jan-21 13:30 295 3 gusting 4 0.3
2020-Jan-21 13:20 285 3 gusting 4 0.3
2020-Jan-21 13:10 290 3 gusting 4 0.3
2020-Jan-21 13:00 290 3 gusting 5 0.2
2020-Jan-21 12:50 290 3 gusting 4 0.4
2020-Jan-21 12:40 345 0.5
2020-Jan-21 12:30 305 2 gusting 7 0.4
2020-Jan-21 12:20 295 2 gusting 4 0.1
2020-Jan-21 12:10 285 3 gusting 4 -0.2
2020-Jan-21 12:00 300 0 gusting 2 -0.1
2020-Jan-21 11:50 310 1 gusting 4 -0.2
2020-Jan-21 11:40 285 3 gusting 4 -0.2
2020-Jan-21 11:30 270 2 gusting 4 -0.0
2020-Jan-21 11:20 295 0.1
2020-Jan-21 11:10 285 1 gusting 5 0.1
2020-Jan-21 11:00 285 2 gusting 4 -0.1
2020-Jan-21 10:50 285 3 gusting 4 -0.5
2020-Jan-21 10:40 270 -0.2
2020-Jan-21 10:30 305 0.2
2020-Jan-21 10:10 010 0.3
2020-Jan-21 10:00 020 0.4
2020-Jan-21 09:50 310 0.4
2020-Jan-21 09:40 355 0.5
2020-Jan-21 09:30 015 0.7
2020-Jan-21 09:20 005 0.8
2020-Jan-21 09:10 110 1 gusting 4 0.7
2020-Jan-21 08:50 040 0.7
2020-Jan-21 08:40 005 0.7
2020-Jan-21 08:30 145 0 gusting 3 0.7
2020-Jan-21 08:20 015 0.8
2020-Jan-21 08:10 100 2 gusting 6 0.8
2020-Jan-21 08:00 095 1.0
2020-Jan-21 07:50 075 0.9
2020-Jan-21 07:40 050 0 gusting 6 1.2
2020-Jan-21 07:30 065 2 gusting 9 1.3
2020-Jan-21 07:20 100 5 gusting 10 1.2
2020-Jan-21 07:10 125 5 gusting 10 1.1
2020-Jan-21 07:00 100 4 gusting 10 1.1
2020-Jan-21 06:50 095 7 gusting 11 1.1
2020-Jan-21 06:40 085 5 gusting 10 1.0
2020-Jan-21 06:30 045 1 gusting 10 0.8
2020-Jan-21 06:20 110 7 gusting 10 0.8
2020-Jan-21 06:10 110 6 gusting 9 0.7
2020-Jan-21 06:00 090 2 gusting 8 0.7
2020-Jan-21 05:50 100 4 gusting 9 0.7
2020-Jan-21 05:40 095 5 gusting 9 0.7
2020-Jan-21 05:30 105 4 gusting 11 0.7
2020-Jan-21 05:20 110 5 gusting 10 0.7
2020-Jan-21 05:10
2020-Jan-21 05:00 105 7 gusting 10 0.8
2020-Jan-21 04:50
2020-Jan-21 04:40 105 8 gusting 9 0.8
2020-Jan-21 04:30 120 3 gusting 10 0.9
2020-Jan-21 04:20 110 7 gusting 11 1.0
2020-Jan-21 04:10 100 5 gusting 12 0.9
2020-Jan-21 04:00 105 7 gusting 15 1.0
2020-Jan-21 03:50 110 9 gusting 14 1.0
2020-Jan-21 03:40
2020-Jan-21 03:30 100 8 gusting 12 0.9
2020-Jan-21 03:20 095 7 gusting 12 0.9
2020-Jan-21 03:10 110 9 gusting 12 0.9
2020-Jan-21 03:00 110 7 gusting 14 1.0
2020-Jan-21 02:50 115 6 gusting 11 1.2
2020-Jan-21 02:40 105 7 gusting 11 1.3
2020-Jan-21 02:30 105 10 gusting 14 1.2
2020-Jan-21 02:20
2020-Jan-21 02:10 090 5 gusting 10 1.1
2020-Jan-21 02:00 105 7 gusting 11 1.0
2020-Jan-21 01:50 110 6 gusting 12 1.1
2020-Jan-21 01:40 100 5 gusting 13 1.2
2020-Jan-21 01:30 060 5 gusting 10 1.0
2020-Jan-21 01:20 110 4 gusting 9 1.0
2020-Jan-21 01:10 065 3 gusting 8 1.0
2020-Jan-21 01:00 075 3 gusting 10 1.0
2020-Jan-21 00:50 095 4 gusting 7 1.1
2020-Jan-21 00:40 085 2 gusting 9 1.1
2020-Jan-21 00:30 095 4 gusting 12 1.2
2020-Jan-21 00:20 060 2 gusting 12 1.3
2020-Jan-21 00:10 105 5 gusting 10 1.3
2020-Jan-21 00:00 110 7 gusting 10 1.2
2020-Jan-20 23:50 100 5 gusting 10 1.4
2020-Jan-20 23:40 100 5 gusting 9 1.2
2020-Jan-20 23:30 095 5 gusting 9 1.3
2020-Jan-20 23:20 105 2 gusting 12 1.2
2020-Jan-20 23:10 100 5 gusting 8 1.1
2020-Jan-20 23:00 100 5 gusting 9 1.1
2020-Jan-20 22:50 105 4 gusting 10 1.1
2020-Jan-20 22:40 110 7 gusting 11 1.0
2020-Jan-20 22:30 110 8 gusting 11 1.1
2020-Jan-20 22:20
2020-Jan-20 22:10 110 4 gusting 8 1.2
2020-Jan-20 22:00 005 0 gusting 6 1.0
2020-Jan-20 21:50 110 2 gusting 10 0.6
2020-Jan-20 21:40 110 7 gusting 11 0.7 0.5
2020-Jan-20 21:30 100 6 gusting 8 0.6
2020-Jan-20 21:20 110 3 gusting 8 0.5
2020-Jan-20 21:10 105 4 gusting 9 0.8
2020-Jan-20 21:00 085 3 gusting 8 0.6
2020-Jan-20 20:50 095 2 gusting 4 0.4
2020-Jan-20 20:40 030 0.3
2020-Jan-20 20:30 035 0.2
2020-Jan-20 20:20 035 0.1
2020-Jan-20 20:10 035 -0.0
2020-Jan-20 20:00
2020-Jan-20 19:50 280 -0.2
2020-Jan-20 19:40 215 -0.0
2020-Jan-20 19:30
2020-Jan-20 19:20 075 -0.3
2020-Jan-20 19:10 070 -0.6
2020-Jan-20 19:00 110 -0.7
2020-Jan-20 18:50 290 -0.9
2020-Jan-20 18:40 145 -0.8
2020-Jan-20 18:30 065 -0.9
2020-Jan-20 18:20 065 0.8-1.0
2020-Jan-20 18:10 305 -1.2
2020-Jan-20 18:00 320 -1.1
2020-Jan-20 17:50 -1.1
2020-Jan-20 17:40 -1.1
2020-Jan-20 17:30 015 -1.2
2020-Jan-20 17:10 035 -1.2
2020-Jan-20 17:00 055 -1.2
2020-Jan-20 16:50 085 -1.3
2020-Jan-20 16:40 085 -1.4
2020-Jan-20 16:30 085 -1.4
2020-Jan-20 16:20 045 -1.4
2020-Jan-20 16:10 265 -1.5
2020-Jan-20 16:00 100 0.7-1.5
2020-Jan-20 15:50 310 0.7-1.6
2020-Jan-20 15:40 345 -1.7
2020-Jan-20 15:30 290 -1.7
2020-Jan-20 15:20 290 2 gusting 3 -1.8
2020-Jan-20 15:10 295 2 gusting 2 -1.7
2020-Jan-20 15:00 320 -1.6